Tracking 19794 objects as of 21-Jul-2019
HD Live streaming from Space Station
objects crossing your sky now

SCOUT G-1 R/B

Track SCOUT G-1 R/B now!
10-day predictions


NORAD ID: 18363
Int'l Code: 1987-080C
Perigee: 1,022.2 km
Apogee: 1,182.4 km
Inclination: 90.3 °
Period: 107.2 minutes
Semi major axis: 7473 km
RCS: 0.8872 m2 (medium)
Launch date: September 16, 1987
Source: United States (US)
Launch site: AIR FORCE WESTERN TEST RANGE (AFWTR)

Note: This is a ROCKET BODY
aabbcc
Your satellite tracking list
Your tracking list is empty




NASA's NSSDC Master Catalog

Two Line Element Set (TLE):
1 18363U 87080C   19201.91520336 +.00000014 +00000-0 +69313-5 0  9998
2 18363 090.3177 000.3648 0107171 105.9832 008.8117 13.43804901560937
Source of the keplerian elements: AFSPC